TimeEST,TemperatureF,Dew PointF,Humidity,Sea Level PressureIn,VisibilityMPH,Wind Direction,Wind SpeedMPH,Gust SpeedMPH,PrecipitationIn,Events,Conditions,WindDirDegrees,DateUTC
12:15 AM,25.3,15.6,67,29.99,10.0,North,3.5,-,N/A,,Clear,350,2013-03-04 05:15:00
12:35 AM,23.7,16.3,73,30.00,10.0,Calm,Calm,-,N/A,,Clear,0,2013-03-04 05:35:00
12:55 AM,24.1,15.3,69,30.00,10.0,Calm,Calm,-,N/A,,Clear,0,2013-03-04 05:55:00
1:15 AM,23.0,16.0,74,30.01,10.0,Calm,Calm,-,N/A,,Clear,0,2013-03-04 06:15:00
1:35 AM,25.0,14.4,64,30.01,10.0,Calm,Calm,-,N/A,,Clear,0,2013-03-04 06:35:00
1:55 AM,22.6,15.8,75,30.02,10.0,Calm,Calm,-,N/A,,Clear,0,2013-03-04 06:55:00
2:55 AM,22.8,15.1,72,30.03,10.0,Calm,Calm,-,N/A,,Clear,0,2013-03-04 07:55:00
3:15 AM,22.1,14.9,74,30.02,10.0,Calm,Calm,-,N/A,,Clear,0,2013-03-04 08:15:00
3:35 AM,20.5,15.1,80,30.03,10.0,Calm,Calm,-,N/A,,Clear,0,2013-03-04 08:35:00
3:55 AM,24.3,14.4,66,30.04,10.0,Calm,Calm,-,N/A,,Clear,0,2013-03-04 08:55:00
4:15 AM,21.7,14.2,73,30.05,10.0,Calm,Calm,-,N/A,,Clear,0,2013-03-04 09:15:00
4:35 AM,23.5,13.8,66,30.06,10.0,Calm,Calm,-,N/A,,Clear,0,2013-03-04 09:35:00
4:55 AM,23.9,13.6,65,30.06,10.0,Calm,Calm,-,N/A,,Clear,0,2013-03-04 09:55:00
5:15 AM,19.9,14.7,80,30.06,10.0,Calm,Calm,-,N/A,,Clear,0,2013-03-04 10:15:00
5:35 AM,17.2,14.7,90,30.08,10.0,NNW,3.5,-,N/A,,Clear,340,2013-03-04 10:35:00
5:55 AM,18.3,14.9,86,30.08,10.0,Calm,Calm,-,N/A,,Clear,0,2013-03-04 10:55:00
6:15 AM,21.4,13.6,72,30.09,10.0,Calm,Calm,-,N/A,,Clear,0,2013-03-04 11:15:00
6:35 AM,19.2,14.0,80,30.10,10.0,Calm,Calm,-,N/A,,Clear,0,2013-03-04 11:35:00
6:55 AM,18.1,14.0,84,30.11,10.0,Calm,Calm,-,N/A,,Clear,0,2013-03-04 11:55:00
7:15 AM,18.3,13.5,81,30.11,10.0,Calm,Calm,-,N/A,,Clear,0,2013-03-04 12:15:00
7:35 AM,19.8,14.9,81,30.12,10.0,NNW,5.8,-,N/A,,Clear,330,2013-03-04 12:35:00
7:55 AM,23.2,16.2,75,30.12,10.0,Calm,Calm,-,N/A,,Clear,0,2013-03-04 12:55:00
8:15 AM,26.2,16.9,68,30.12,10.0,Calm,Calm,-,N/A,,Clear,0,2013-03-04 13:15:00
8:35 AM,29.5,18.9,65,30.13,10.0,Calm,Calm,-,N/A,,Clear,0,2013-03-04 13:35:00
8:55 AM,32.0,18.0,56,30.13,10.0,Calm,Calm,-,N/A,,Clear,0,2013-03-04 13:55:00
9:15 AM,34.0,15.3,46,30.14,10.0,Calm,Calm,-,N/A,,Clear,0,2013-03-04 14:15:00
9:35 AM,35.4,15.6,44,30.14,10.0,Calm,Calm,-,N/A,,Clear,0,2013-03-04 14:35:00
9:55 AM,36.7,13.3,38,30.14,10.0,Calm,Calm,-,N/A,,Clear,0,2013-03-04 14:55:00
10:15 AM,37.6,12.9,36,30.13,10.0,Calm,Calm,-,N/A,,Clear,0,2013-03-04 15:15:00
10:35 AM,39.4,13.5,35,30.13,10.0,Calm,Calm,-,N/A,,Clear,0,2013-03-04 15:35:00
10:55 AM,41.0,13.1,32,30.13,10.0,WNW,4.6,-,N/A,,Clear,290,2013-03-04 15:55:00
11:15 AM,42.8,14.0,31,30.12,10.0,West,4.6,-,N/A,,Clear,280,2013-03-04 16:15:00
11:35 AM,42.4,11.8,29,30.12,10.0,SSW,4.6,-,N/A,,Clear,210,2013-03-04 16:35:00
11:55 AM,44.6,12.0,27,30.12,10.0,West,3.5,-,N/A,,Clear,270,2013-03-04 16:55:00
12:15 PM,45.9,12.9,27,30.10,10.0,West,3.5,-,N/A,,Clear,280,2013-03-04 17:15:00
12:35 PM,47.8,13.1,25,30.10,10.0,Calm,Calm,-,N/A,,Clear,0,2013-03-04 17:35:00
12:55 PM,49.1,12.9,23,30.09,10.0,North,3.5,-,N/A,,Clear,360,2013-03-04 17:55:00
1:15 PM,50.9,13.8,23,30.08,10.0,NW,5.8,-,N/A,,Clear,310,2013-03-04 18:15:00
1:55 PM,50.9,12.9,22,30.05,10.0,South,4.6,-,N/A,,Clear,170,2013-03-04 18:55:00
2:15 PM,51.8,12.4,21,30.04,10.0,NNE,3.5,-,N/A,,Clear,20,2013-03-04 19:15:00
2:35 PM,52.3,11.5,20,30.03,10.0,SSW,3.5,-,N/A,,Clear,200,2013-03-04 19:35:00
2:55 PM,52.7,11.3,19,30.03,10.0,Calm,Calm,-,N/A,,Clear,0,2013-03-04 19:55:00
3:15 PM,54.1,11.5,18,30.03,10.0,South,8.1,-,N/A,,Clear,170,2013-03-04 20:15:00
3:35 PM,55.8,11.7,17,30.02,10.0,SSW,5.8,-,N/A,,Clear,200,2013-03-04 20:35:00
3:55 PM,55.6,10.6,17,30.02,10.0,South,6.9,-,N/A,,Clear,190,2013-03-04 20:55:00
4:15 PM,55.2,9.0,16,30.02,10.0,South,4.6,-,N/A,,Clear,170,2013-03-04 21:15:00
4:35 PM,55.6,10.6,17,30.02,10.0,SSW,5.8,-,N/A,,Clear,210,2013-03-04 21:35:00
4:55 PM,55.2,10.4,17,30.02,10.0,SW,4.6,-,N/A,,Clear,230,2013-03-04 21:55:00
5:15 PM,54.3,13.8,20,30.02,10.0,SSW,11.5,-,N/A,,Clear,200,2013-03-04 22:15:00
5:35 PM,53.2,14.7,22,30.03,10.0,South,6.9,-,N/A,,Clear,190,2013-03-04 22:35:00
5:55 PM,52.3,15.3,23,30.03,10.0,South,8.1,-,N/A,,Clear,180,2013-03-04 22:55:00
6:15 PM,50.4,16.0,26,30.03,10.0,South,5.8,-,N/A,,Clear,190,2013-03-04 23:15:00
6:35 PM,49.8,15.8,26,30.03,10.0,South,4.6,-,N/A,,Clear,190,2013-03-04 23:35:00
6:55 PM,47.3,17.4,30,30.05,10.0,South,4.6,-,N/A,,Scattered Clouds,190,2013-03-04 23:55:00
7:15 PM,48.4,16.9,29,30.05,10.0,South,4.6,-,N/A,,Scattered Clouds,190,2013-03-05 00:15:00
7:35 PM,47.5,17.8,31,30.05,10.0,South,3.5,-,N/A,,Clear,190,2013-03-05 00:35:00
7:55 PM,46.4,18.0,32,30.05,10.0,South,4.6,-,N/A,,Scattered Clouds,190,2013-03-05 00:55:00
8:15 PM,46.9,17.8,31,30.05,10.0,SSW,3.5,-,N/A,,Clear,200,2013-03-05 01:15:00
8:35 PM,46.6,18.1,32,30.05,10.0,Calm,Calm,-,N/A,,Clear,0,2013-03-05 01:35:00
8:55 PM,46.6,18.3,32,30.05,10.0,SSW,3.5,-,N/A,,Clear,200,2013-03-05 01:55:00
9:15 PM,46.6,18.3,32,30.06,10.0,Calm,Calm,-,N/A,,Clear,0,2013-03-05 02:15:00
9:35 PM,45.1,19.0,35,30.06,10.0,South,3.5,-,N/A,,Clear,190,2013-03-05 02:35:00
9:55 PM,45.3,18.3,34,30.06,10.0,SSW,4.6,-,N/A,,Clear,200,2013-03-05 02:55:00
10:15 PM,45.0,18.7,35,30.06,10.0,SSW,3.5,-,N/A,,Clear,200,2013-03-05 03:15:00
10:35 PM,44.6,19.6,37,30.06,10.0,SSW,4.6,-,N/A,,Clear,210,2013-03-05 03:35:00
10:55 PM,44.6,19.0,36,30.06,10.0,Calm,Calm,-,N/A,,Clear,0,2013-03-05 03:55:00
11:15 PM,43.7,19.0,37,30.06,10.0,Calm,Calm,-,N/A,,Clear,0,2013-03-05 04:15:00
11:35 PM,42.8,20.1,40,30.05,10.0,East,3.5,-,N/A,,Clear,90,2013-03-05 04:35:00
11:55 PM,43.0,21.0,42,30.05,10.0,Calm,Calm,-,N/A,,Clear,0,2013-03-05 04:55:00